EW0591 Weather Reports


time (UTC)temp
C
wind
direction
speed
KPH
gust
KPH
rain 1hr
cm
rain 24hr
cm
rain mn
cm
humidity
%
barometer
mb
20260505084104 3 208 0.0 0.0 0.00 0.00 0.00 74 1022.6
20260505083601 3 221 0.0 0.0 0.00 0.00 0.00 74 1022.5
20260505083058 5 328 4.8 4.8 0.00 0.00 0.00 70 1022.8
20260505082553 5 270 0.0 0.0 0.00 0.00 0.00 73 1022.6
20260505082051 5 206 0.0 0.0 0.00 0.00 0.00 72 1022.7
20260505081547 6 176 0.0 0.0 0.00 0.00 0.00 69 1022.8
20260505081044 5 170 1.6 1.6 0.00 0.00 0.00 68 1022.8
20260505080540 6 223 1.6 3.2 0.00 0.00 0.00 65 1022.8
20260505080037 7 201 0.0 1.6 0.00 0.00 0.00 66 1022.8
20260505075533 7 46 1.6 3.2 0.00 0.00 0.00 62 1022.8
20260505075030 6 261 0.0 0.0 0.00 0.00 0.00 61 1022.6
20260505074527 7 235 0.0 0.0 0.00 0.00 0.00 60 1022.5
20260505074024 8 92 1.6 1.6 0.00 0.00 0.00 60 1022.5
20260505073522 8 276 3.2 3.2 0.00 0.00 0.00 58 1022.8
20260505073020 8 237 0.0 0.0 0.00 0.00 0.00 57 1022.8
20260505072515 8 258 0.0 0.0 0.00 0.00 0.00 54 1022.8
20260505072012 8 189 0.0 1.6 0.00 0.00 0.00 57 1022.9
20260505071507 10 319 1.6 1.6 0.00 0.00 0.00 55 1022.7
20260505071006 10 338 3.2 3.2 0.00 0.00 0.00 48 1022.9
20260505070503 10 333 4.8 8.0 0.00 0.00 0.00 49 1023.0
20260505065958 11 47 1.6 1.6 0.00 0.00 0.00 48 1022.8
20260505065455 9 60 3.2 4.8 0.00 0.00 0.00 52 1022.8
20260505064951 8 347 4.8 8.0 0.00 0.00 0.00 57 1022.7
20260505064448 7 332 1.6 3.2 0.00 0.00 0.00 60 1022.6
20260505063947 7 60 1.6 1.6 0.00 0.00 0.00 59 1022.2
20260505063443 8 200 0.0 0.0 0.00 0.00 0.00 62 1022.3
20260505062939 8 191 1.6 1.6 0.00 0.00 0.00 59 1022.3
20260505062436 9 177 1.6 1.6 0.00 0.00 0.00 58 1022.2
20260505061933 9 177 3.2 3.2 0.00 0.00 0.00 58 1022.3
20260505061432 10 120 1.6 3.2 0.00 0.00 0.00 52 1022.5
20260505060929 10 193 1.6 1.6 0.00 0.00 0.00 54 1022.2
20260505060426 10 221 0.0 0.0 0.00 0.00 0.00 54 1022.0
20260505055922 10 183 0.0 0.0 0.00 0.00 0.00 52 1022.0
20260505055418 10 263 6.4 8.0 0.00 0.00 0.00 52 1021.9
20260505054915 11 239 0.0 0.0 0.00 0.00 0.00 52 1022.0
20260505054412 11 268 3.2 3.2 0.00 0.00 0.00 51 1021.7
20260505053910 10 43 0.0 0.0 0.00 0.00 0.00 62 1021.7
20260505053407 10 69 3.2 3.2 0.00 0.00 0.00 57 1021.8
20260505052903 10 341 0.0 1.6 0.00 0.00 0.00 62 1021.8
20260505052401 11 200 0.0 0.0 0.00 0.00 0.00 52 1021.7
20260505051858 11 61 0.0 0.0 0.00 0.00 0.00 56 1021.6
20260505051355 12 331 1.6 1.6 0.00 0.00 0.00 51 1021.5
20260505050853 11 338 4.8 4.8 0.00 0.00 0.00 53 1021.6
20260505050351 11 344 6.4 8.0 0.00 0.00 0.00 53 1021.6
20260505041319 12 181 4.8 9.7 0.00 0.00 0.00 50 1021.2
20260505040815 12 70 1.6 1.6 0.00 0.00 0.00 58 1021.2
20260505040313 12 185 1.6 1.6 0.00 0.00 0.00 48 1020.8
20260505035809 11 241 1.6 1.6 0.00 0.00 0.00 50 1021.1
20260505035305 11 269 0.0 0.0 0.00 0.00 0.00 55 1021.0
20260505034803 12 279 1.6 1.6 0.00 0.00 0.00 48 1020.6
20260505034259 12 146 4.8 4.8 0.00 0.00 0.00 58 1020.9
20260505033756 12 282 0.0 0.0 0.00 0.00 0.00 50 1020.6
20260505033254 13 262 0.0 0.0 0.00 0.00 0.00 48 1020.7
20260505032752 13 247 1.6 1.6 0.00 0.00 0.00 49 1020.6
20260505032247 12 281 0.0 0.0 0.00 0.00 0.00 49 1020.2
20260505031745 13 277 0.0 0.0 0.00 0.00 0.00 48 1020.2
20260505031241 13 336 4.8 8.0 0.00 0.00 0.00 49 1020.1
20260505030738 14 202 0.0 0.0 0.00 0.00 0.00 45 1019.9
20260505030234 14 86 4.8 8.0 0.00 0.00 0.00 44 1020.1
20260505025730 14 37 4.8 4.8 0.00 0.00 0.00 45 1019.8
20260505025228 13 331 0.0 0.0 0.00 0.00 0.00 46 1019.6
20260505024726 14 271 3.2 3.2 0.00 0.00 0.00 46 1019.8
20260505024223 15 235 6.4 9.7 0.00 0.00 0.00 42 1019.6
20260505023721 14 259 0.0 0.0 0.00 0.00 0.00 47 1019.5
20260505023218 14 321 6.4 8.0 0.00 0.00 0.00 46 1019.2
20260505022715 14 309 0.0 1.6 0.00 0.00 0.00 46 1019.1
20260505022212 14 252 0.0 0.0 0.00 0.00 0.00 48 1019.0
20260505021709 15 265 0.0 0.0 0.00 0.00 0.00 48 1019.0
20260505021206 15 268 0.0 0.0 0.00 0.00 0.00 47 1018.9
20260505020701 15 137 4.8 4.8 0.00 0.00 0.00 44 1018.7
20260505020157 15 223 0.0 1.6 0.00 0.00 0.00 45 1018.7
20260505015655 16 97 0.0 1.6 0.00 0.00 0.00 45 1018.5
20260505015151 16 260 0.0 0.0 0.00 0.00 0.00 46 1018.5
20260505014648 16 140 0.0 0.0 0.00 0.00 0.00 44 1018.4
20260505014145 16 246 0.0 0.0 0.00 0.00 0.00 45 1018.3
20260505013642 17 242 0.0 1.6 0.00 0.00 0.00 44 1018.3
20260505013139 17 56 3.2 11.3 0.00 0.00 0.00 42 1018.4
20260505012638 18 195 0.0 0.0 0.00 0.00 0.00 43 1018.5
20260505012134 18 245 0.0 0.0 0.00 0.00 0.00 42 1018.4
20260505011630 18 282 0.0 1.6 0.00 0.00 0.00 42 1018.4
20260505011127 18 109 0.0 0.0 0.00 0.00 0.00 41 1018.4
20260505010622 18 287 3.2 4.8 0.00 0.00 0.00 42 1018.3
20260505010119 18 273 1.6 3.2 0.00 0.00 0.00 38 1018.3
20260505005615 18 164 0.0 1.6 0.00 0.00 0.00 42 1018.0
20260505005112 18 42 1.6 3.2 0.00 0.00 0.00 42 1018.5
20260505004609 18 30 3.2 3.2 0.00 0.00 0.00 41 1018.3
20260505004106 19 343 1.6 3.2 0.00 0.00 0.00 39 1018.1
20260505003603 18 349 1.6 1.6 0.00 0.00 0.00 42 1018.3
20260505003101 18 244 0.0 1.6 0.00 0.00 0.00 43 1018.5
20260505002556 18 76 0.0 3.2 0.00 0.00 0.00 41 1018.0
20260505002055 18 3 4.8 8.0 0.00 0.00 0.00 43 1018.1
20260505001552 18 131 1.6 1.6 0.00 0.00 0.00 43 1018.0
20260505001049 18 75 0.0 3.2 0.00 0.00 0.00 42 1018.1
20260505000546 19 353 0.0 0.0 0.00 0.00 0.00 42 1017.9
20260505000044 20 33 3.2 9.7 0.00 0.00 0.00 41 1017.9
20260504235540 20 152 0.0 0.0 0.00 0.00 0.00 42 1017.8
20260504235038 20 136 0.0 0.0 0.00 0.00 0.00 39 1017.8
20260504234534 20 325 1.6 1.6 0.00 0.00 0.00 44 1017.7
20260504234031 20 324 3.2 4.8 0.00 0.00 0.00 39 1017.6
20260504233526 20 161 0.0 0.0 0.00 0.00 0.00 43 1017.6
20260504233023 20 323 1.6 1.6 0.00 0.00 0.00 41 1017.7
20260504232520 20 235 0.0 1.6 0.00 0.00 0.00 38 1017.6
20260504232018 20 174 3.2 4.8 0.00 0.00 0.00 39 1017.8
20260504231514 20 67 8.0 11.3 0.00 0.00 0.00 40 1017.7
20260504231011 20 338 14.5 16.1 0.00 0.00 0.00 40 1017.6
20260504230507 20 352 8.0 9.7 0.00 0.00 0.00 40 1017.7
20260504230006 20 325 9.7 12.9 0.00 0.00 0.00 39 1017.9
20260504225503 20 351 8.0 12.9 0.00 0.00 0.00 40 1017.7
20260504225000 20 355 1.6 3.2 0.00 0.00 0.00 40 1017.7
20260504224456 20 338 1.6 1.6 0.00 0.00 0.00 42 1017.7
20260504223953 20 325 6.4 9.7 0.00 0.00 0.00 37 1017.7
20260504223450 20 14 9.7 14.5 0.00 0.00 0.00 38 1017.9
20260504222945 20 329 12.9 16.1 0.00 0.00 0.00 39 1017.6
20260504222443 20 328 17.7 22.5 0.00 0.00 0.00 37 1017.8
20260504221940 20 336 12.9 16.1 0.00 0.00 0.00 37 1017.7
20260504221437 20 347 9.7 12.9 0.00 0.00 0.00 37 1017.6
20260504220934 20 3 12.9 14.5 0.00 0.00 0.00 37 1017.6
20260504220431 20 304 8.0 8.0 0.00 0.00 0.00 40 1017.6
20260504215928 21 335 19.3 22.5 0.00 0.00 0.00 38 1017.7
20260504215425 21 344 8.0 8.0 0.00 0.00 0.00 39 1017.6
20260504214921 20 29 4.8 4.8 0.00 0.00 0.00 41 1017.7
20260504214418 21 334 14.5 17.7 0.00 0.00 0.00 39 1017.6
20260504213914 21 330 12.9 16.1 0.00 0.00 0.00 37 1017.6
20260504213410 21 324 17.7 20.9 0.00 0.00 0.00 37 1017.9
20260504212908 21 344 9.7 11.3 0.00 0.00 0.00 41 1017.9
20260504212403 20 323 12.9 16.1 0.00 0.00 0.00 37 1017.9
20260504211902 20 327 11.3 12.9 0.00 0.00 0.00 39 1017.7
20260504211357 20 305 11.3 12.9 0.00 0.00 0.00 39 1017.9
20260504210855 20 343 9.7 11.3 0.00 0.00 0.00 38 1017.8
20260504210352 20 352 16.1 20.9 0.00 0.00 0.00 41 1018.0
20260504205849 20 286 17.7 20.9 0.00 0.00 0.00 37 1018.4
20260504205347 20 322 14.5 16.1 0.00 0.00 0.00 39 1018.1
20260504204845 20 296 11.3 12.9 0.00 0.00 0.00 40 1018.3
20260504204343 20 352 16.1 22.5 0.00 0.00 0.00 40 1018.4
20260504203842 20 326 6.4 9.7 0.00 0.00 0.00 38 1018.4
20260504203338 20 318 8.0 11.3 0.00 0.00 0.00 38 1018.1
20260504202834 20 327 9.7 12.9 0.00 0.00 0.00 39 1018.3
20260504202332 20 270 6.4 9.7 0.00 0.00 0.00 40 1018.3
20260504201828 20 320 16.1 20.9 0.00 0.00 0.00 39 1018.4
20260504201326 20 318 4.8 8.0 0.00 0.00 0.00 39 1018.4
20260504200823 20 318 19.3 22.5 0.00 0.00 0.00 37 1018.4
20260504200319 20 319 8.0 16.1 0.00 0.00 0.00 42 1018.4
20260504195815 20 20 12.9 14.5 0.00 0.00 0.00 38 1018.5
20260504195311 20 324 9.7 11.3 0.00 0.00 0.00 38 1018.5
20260504194808 19 323 9.7 12.9 0.00 0.00 0.00 43 1018.5
20260504194304 20 319 14.5 14.5 0.00 0.00 0.00 38 1018.3
20260504193801 19 331 14.5 16.1 0.00 0.00 0.00 37 1018.6
20260504193258 18 345 12.9 16.1 0.00 0.00 0.00 39 1018.5
20260504192757 19 355 8.0 9.7 0.00 0.00 0.00 41 1018.7
20260504192254 19 337 9.7 11.3 0.00 0.00 0.00 41 1018.8
20260504191753 17 336 9.7 11.3 0.00 0.00 0.00 40 1018.9
20260504191249 18 0 14.5 20.9 0.00 0.00 0.00 42 1018.9
20260504190745 19 335 12.9 14.5 0.00 0.00 0.00 42 1018.9
20260504190242 20 345 4.8 4.8 0.00 0.00 0.00 41 1019.1
20260504185738 18 358 14.5 16.1 0.00 0.00 0.00 39 1018.9
20260504185235 18 329 14.5 17.7 0.00 0.00 0.00 39 1019.0
20260504184731 18 328 19.3 25.7 0.00 0.00 0.00 39 1019.1
20260504184227 18 252 8.0 12.9 0.00 0.00 0.00 43 1019.2
20260504183723 18 318 9.7 11.3 0.00 0.00 0.00 39 1019.4
20260504183220 18 346 12.9 16.1 0.00 0.00 0.00 43 1019.1
20260504182718 18 319 9.7 11.3 0.00 0.00 0.00 40 1019.5
20260504182215 17 314 6.4 8.0 0.00 0.00 0.00 44 1019.6
20260504181713 17 337 12.9 14.5 0.00 0.00 0.00 43 1019.7
20260504181210 18 324 9.7 11.3 0.00 0.00 0.00 43 1019.6
20260504180709 18 335 16.1 17.7 0.00 0.00 0.00 43 1019.5
20260504180207 17 326 11.3 12.9 0.00 0.00 0.00 41 1019.8
20260504175704 17 299 6.4 9.7 0.00 0.00 0.00 43 1019.6
20260504175201 17 307 6.4 11.3 0.00 0.00 0.00 43 1019.6
20260504174659 17 324 11.3 12.9 0.00 0.00 0.00 40 1019.8
20260504174156 16 278 4.8 4.8 0.00 0.00 0.00 43 1019.8
20260504173652 17 328 12.9 14.5 0.00 0.00 0.00 43 1019.7
20260504173150 17 319 14.5 17.7 0.00 0.00 0.00 43 1019.9
20260504172646 17 217 4.8 8.0 0.00 0.00 0.00 42 1020.0
20260504172143 16 345 12.9 12.9 0.00 0.00 0.00 42 1019.9
20260504171639 16 322 9.7 12.9 0.00 0.00 0.00 42 1019.9
20260504171137 17 328 8.0 9.7 0.00 0.00 0.00 43 1020.0
20260504170633 16 2 3.2 3.2 0.00 0.00 0.00 43 1020.2
20260504170131 16 326 11.3 12.9 0.00 0.00 0.00 42 1020.0
20260504151016 14 333 8.0 9.7 0.00 0.00 0.00 50 1020.4
20260504150514 13 347 9.7 11.3 0.00 0.00 0.00 52 1020.4
20260504140939 12 325 4.8 9.7 0.00 0.00 0.00 61 1020.4
20260504140436 11 5 3.2 4.8 0.00 0.00 0.00 60 1020.5
20260504130400 4 157 0.0 0.0 0.00 0.00 0.00 94 1019.6
20260504110248 3 233 0.0 0.0 0.00 0.00 0.00 92 1019.1
20260504100211 5 211 0.0 0.0 0.00 0.00 0.00 90 1018.5
20260504090134 5 223 0.0 0.0 0.00 0.00 0.00 87 1018.5